Terug naar catalogus

EXPRESS AM-1

ActiefCommunicatieGEO
NORAD 28463·PAYLOAD·🇷🇺 Russia

Gelanceerd Oct 29, 2004 vanaf Baikonur Cosmodrome

Loading…

TLE

VersSource: Space-Track

Epoch: Sep 14, 2026, 13:32 UTC

1 28463U 04043A   26257.56423854  .00000063  00000-0  00000-0 0  9992
2 28463  11.6270  39.1863 0010654 235.4847 155.5632  0.99192461 79601

Volg EXPRESS AM-1 in realtime met AllMySat

Download on the App Store